Location: Byhalia Creek
(34.8270°N, 89.8040°W)
Time: 08:10:50
(UTC+00:00)

Meteor 2-20 Rocket - Pass Details

Date: 22 April 2026
Orbit: 871 x 1024 km, 82.5° (Epoch: 15 May)

Event Time Altitude Azimuth Distance (km) Brightness Sun altitude
Exits shadow 08:45:21 79° 184° (S) 976 4.3 -28.4°
Maximum altitude 08:45:46 90° 121° (ESE) 959 4.3 -28.4°
Drops below altitude 10° 08:51:48 10° 7° (N) 2,634 7.3 -27.4°
Sets 08:54:14 0° 7° (N) 3,559 8.1 -27.0°
